SL-16 DEB

Satellite information

Favourite Embed

Satellite Type and Status

DEBRISIN ORBIT

Key statistics

Satellite SL-16 DEB at a glance.

Uptime

11883

Days in orbit

Revolutions

≈ 14.2

Per day

Orbit

LEO

Low Earth Orbit

Inclination

71.3

Latest

Satellite identification and parameters

Extended collection of information and parameters for SL-16 DEB.

Object identification

Identified? True

Debris? True

Object name: SL-16 DEB

International designator: 1992-093EN

Object number (NORAD): 22445

Object ID (CCSDS): 22445

Country: COMMONWEALTH OF INDEPENDENT STATES (CIS)

Current information (Y/N): Y

RCS size: SMALL

Orbital parameters

Period: 101.767 minutes

Inclination: 71.2881 deg

SMA: 7220.449 km

Apoapsis: 896.645 km

Periapsis: 787.982 km

RAAN: 355.9159 deg

Eccentricy: 0.0075247

Argument of periapsis: 4.4076 deg

Mean anomaly: 355.7694 deg

Mean motion: 14.15000155 rev/day

Mean motion (dot): 0.00000368 rev/day2

B* drag term: 0.00020782 1/REarth

Two-line elements (TLE)

Creation date: July 8, 2025, 2:27 a.m.

Reference frame: TEME

Reference center: EARTH

Epoch: July 7, 2025, 8:59 p.m. UTC

TLE line 0: 0 SL-16 DEB

TLE line 1: 1 22445U 92093EN 25188.87446322 .00000368 00000-0 20782-3 0 9999

TLE line 2: 2 22445 71.2881 355.9159 0075247 4.4076 355.7694 14.15000155669685

Live tracking on map

Real-time ground track for satellite SL-16 DEB.

In-orbit conjunctions

A list of the most updated potential collisions computed for object SL-16 DEB.

Target Orbit TCA Probability of collision Miss distance Type
DELTA 1 DEB SSO 2025-03-12 14:29:14 0.000280974 63.0 (m) DEBRIS
FENGYUN 1C DEB SSO 2025-03-09 02:29:35 0.0003202538 49.0 (m) DEBRIS
SL-3 DEB LEO 2024-11-10 02:05:07 0.0001761064 913.0 (m) DEBRIS

Associated space launch

Second generation ELING satellite

SL-16 DEB was lifted into orbit during the mission ‘Zenit-2 | Tselina-2 12’, on board a Zenit-2 space rocket.

The launch took place on Dec. 25, 1992, 5:56 a.m. from 45/1.

For more information about the launch, click the button.

Launch to space Zenit-2 | Tselina-2 12
Zenit-2 | Tselina-2 12

Agency: N/A

Status: Launch Successful

Launch date: Dec. 25, 1992, 5:56 a.m. UTC

Rocket: Zenit-2

Launch pad: 45/1

Location: Baikonur Cosmodrome, Republic of Kazakhstan

...

Latest news about this satellite

There are no fresh news available about this satellite. Check back as we update our databases every day.


Newsletter sign-up

Weekly statistics, charts and insights to help you stay on top of the space industry.